Погода в Пяжиевой Сельге

Россия / Республика Карелия     61°28′56″N   34°29′25″E
темп.,
°C
ветер,
м/с
пор.,
м/с
влажн.,
%
обл.,
%
осадки,
мм/ч
давл.,
гПа
погр.,
м
16 июня, ср
ср1600:00+10зюз3107683 0.0 1008235
03:00+10з411690 0.0 1009299
06:00+12з410620 0.0 1010416
09:00+16з59445 0.0 10101840
12:00+18з593298 0.0 10112858
15:00+19з572897 0.0 10122580
18:00+18з5636100 0.0 10132189
21:00+14з49455 0.0 1015615
17 июня, чт
чт1700:00+10з3862100 0.0 1017166
03:00+8з366740 0.0 1019105
06:00+12зсз265821 0.0 1020220
09:00+16ссз35455 0.0 10211262
12:00+18ссз353985 0.0 10221805
15:00+20ссз25354 0.0 10221861
18:00+21зсз24352 0.0 10221939
21:00+17зюз385464 0.0 1023329
18 июня, пт
пт1800:00+13юз396554 0.0 1023168
03:00+12юз3106888 0.0 1023193
06:00+15юз4126061 0.0 1022386
09:00+20юз510485 0.0 1021888
12:00+24зюз7114212 0.0 10201610
15:00+25зюз610385 0.0 10191586
18:00+24зюз5113944 0.0 10181408
21:00+20зюз5125015 0.0 1018874
19 июня, сб
сб1900:00+17юз415591 0.0 1018531
03:00+17зюз516620 0.0 1018534
06:00+18зюз514620 0.0 1018624
09:00+23зюз612493 0.0 10181006
12:00+26зюз710400 0.0 10181480
15:00+27зюз610400 0.0 10181573
18:00+26зюз58400 0.0 10171438
21:00+21юз36630 0.0 1017144
20 июня, вс
вс2000:00+17юз38780 0.0 1018139
03:00+17юз311750 0.0 1018203
06:00+20юз31068100 0.0 1017308
09:00+23юз49579 0.0 1017575
12:00+28юз683760 0.0 10162011
15:00+28зюз610395 0.0 10152031
18:00+28зюз510420 0.0 10142059
21:00+24юз310555 0.0 1014412